Flag for Switzerland Weather past 2 weeks in Küssnacht, Schwyz, Switzerland

Now
33 °F

Snow. Overcast.


Feels Like: 30 °F
Forecast: 13 / 20 °F
Wind: 3 mph from Southeast

Location: Altdorf

Current Time: Dec 27, 2014 at 8:23:12 PM

Latest Report: Dec 27, 2014 at 7:00 PM


Visibility: 6 mi

Pressure: 29.60 "Hg

Humidity: 95%

Dew point: 32 °F

Location of KüssnachtLocation

Historic Weather in Küssnacht — Graph

°F

Küssnacht temperature yesterday

Maximum temperature yesterday: 40 °F (at 2:00 PM)
Minimum temperature yesterday: 31 °F (at 10:00 PM)
Average temperature yesterday: 37 °F

Past Weeks' High & Low Weather Summary

 TemperatureHumidityPressure
High59 °F (Dec 13, 1:00 PM)100% (Dec 18, 10:00 PM)30.62 "Hg (Dec 18, 10:00 PM)
Low26 °F (Dec 27, 1:00 AM)31% (Dec 12, 10:00 PM)29.60 "Hg (Dec 27, 5:00 PM)
Average42 °F79%30.19 "Hg
* Reported Dec 12 6:00 PM — Dec 27 6:00 PM, Küssnacht, Weather by CustomWeather, © 2014

Note: Actual official high and low records may vary slightly from our data, if they occured in-between our weather recording intervals... More about our weather records

Advertising

Küssnacht weather history for previous 24 hours

 ConditionsComfort  
Time TempWeatherWind HumidityBarometerVisibility
6:00 PM
Dec 27
33 °FChilly.5 mph97%29.60 "HgN/A
5:00 PM33 °FChilly.2 mph93%29.60 "HgN/A
4:00 PM35 °FOvercast.3 mph84%29.61 "Hg10 mi
3:00 PM35 °FChilly.13 mph83%29.64 "HgN/A
2:00 PM33 °FChilly.12 mph88%29.68 "HgN/A
1:00 PM33 °FSnow. Dense fog.16 mph87%29.70 "Hg1 mi
12:00 PM38 °FChilly.23 mph61%29.68 "HgN/A
11:00 AM38 °FChilly.25 mph54%29.70 "HgN/A
10:00 AM36 °FLight snow. Dense fog.31 mph64%29.76 "Hg1 mi
9:00 AM37 °FChilly.28 mph63%29.79 "HgN/A
8:00 AM39 °FChilly.29 mph53%29.80 "HgN/A
7:00 AM38 °FSnow. Dense fog.29 mph59%29.84 "Hg1 mi
6:00 AM35 °FChilly.6 mph62%29.91 "HgN/A
5:00 AM30 °FChilly.3 mph83%29.99 "HgN/A
4:00 AM31 °FPassing clouds.2 mph66%30.09 "Hg12 mi
3:00 AM29 °FChilly.2 mph75%30.16 "HgN/A
2:00 AM27 °FChilly.3 mph76%30.20 "HgN/A
1:00 AM26 °FPassing clouds.3 mph82%30.24 "Hg16 mi
12:00 AM29 °FChilly.3 mph77%30.28 "HgN/A
11:00 PM
Dec 26
31 °FChilly.3 mph79%30.32 "HgN/A
10:00 PM31 °FPassing clouds.5 mph73%30.36 "Hg12 mi
9:00 PM32 °FChilly.3 mph82%30.37 "HgN/A
8:00 PM33 °FChilly.3 mph73%30.40 "HgN/A
Weather by CustomWeather, © 2014

See weather overviewHow to use our weather pages